Skip Page Navigation
NASA JPL Caltech
NASA Logo - Jet Propulsion Laboratory + View the NASA Portal
+ Near-Earth Object (NEO) Program
Search JPL
JPL Home Earth Solar System Stars & Galaxies Technology
JPL Solar System Dynamics
BODIES ORBITS EPHEMERIDES TOOLS PHYSICAL DATA DISCOVERY FAQ SITE MAP
JPL Small-Body Database Browser
Search: [ help ]  
162421 (2000 ET70)
Classification: Aten [NEO, PHA]          SPK-ID: 2162421
Ephemeris | Orbit Diagram | Orbital Elements | Physical Parameters | Discovery Circumstances | Close-Approach Data ]

[ hide orbit diagram ]
Orbit Diagram
Note: Make sure you have Java enabled on your browser to see the applet. This applet is provided as a 3D orbit visualization tool. The applet was implemented using 2-body methods, and hence should not be used for determining accurate long-term trajectories (over several years or decades) or planetary encounter circumstances. For accurate long-term ephemerides, please instead use our Horizons system.
Orbit Viewer

Additional Notes: the orbits shown in the applet are color coded. The planets are white lines, and the asteroid/comet is a blue line. The bright white line indicates the portion of the orbit that is above the ecliptic plane, and the darker portion is below the ecliptic plane. Likewise for the asteroid/comet orbit, the light blue indicates the portion above the ecliptic plane, and the dark blue the portion below the ecliptic plane.

Orbit Viewer applet originally written and kindly provided by Osamu Ajiki (AstroArts), and further modified by Ron Baalke (JPL).


Orbital Elements at Epoch 2456400.5 (2013-Apr-18.0) TDB
Reference: JPL 85 (heliocentric ecliptic J2000)
 Element Value Uncertainty (1-sigma)   Units 
e .1236360399801937 5.8492e-08  
a .9465972419934733 9.6481e-10 AU
q .8295637075372272 5.5078e-08 AU
i 22.3232863253579 1.2357e-06 deg
node 331.1658650090877 9.2604e-07 deg
peri 46.09018754857914 1.0482e-05 deg
M 217.0932070630442 1.9463e-05 deg
tp 2456534.035473685619
(2013-Aug-29.53547369)
1.8255e-05 JED
period 336.3924802932933
0.92
5.143e-07
1.408e-09
d
yr
n 1.070178500084555 1.6361e-09 deg/d
Q 1.063630776449719 1.0841e-09 AU
  Orbit Determination Parameters
   # obs. used (total)      353  
   # delay obs. used      18  
   # Doppler obs. used      0  
   data-arc span      13203 days (36.15 yr)  
   first obs. used      1977-02-18  
   last obs. used      2013-04-13  
   planetary ephem.      DE405  
   SB-pert. ephem.      SB405-CPV-2  
   condition code      0  
   fit RMS      .4039  
   data source      ORB  
   producer      Otto Matic  
   solution date      2013-May-02 01:51:00  

Additional Information
 Earth MOID = .0296795 AU 
 T_jup = 6.280 
[ show covariance matrix ]

Ephemeris | Orbit Diagram | Orbital Elements | Physical Parameters | Discovery Circumstances | Close-Approach Data ]

Physical Parameter Table
Parameter Symbol Value Units Sigma Reference Notes
absolute magnitude H 18. mag .5625 70 autocmod 2.5b
rotation period rot_per 8.947 h n/a Asteroid Lightcurve DataBase (Rev. 2013-May-01) Published Reference List:
[Naidu, S.; Margot, J.L.; Taylor, P.A.; Nolan, M.C.; et al. (2012) DPS #44, 302.06.]
[Alvarez, E.M.; Magnetta, B.J.; Rastede, F.W. (2012) Minor Planet Bul. 39, 170.]

162421 (2000 ET70)          Discovered 2000-Mar-08 by LINEAR at Socorro (704)
Reference: 20070926/Numbers.arcLast Updated: 2007-09-30

[ show close-approach data ]
Ephemeris | Orbit Diagram | Orbital Elements | Physical Parameters | Discovery Circumstances | Close-Approach Data ]
ABOUT SSD CREDITS/AWARDS PRIVACY/COPYRIGHT GLOSSARY LINKS
FirstGov 2013-May-18 09:48 UT
(server date/time)  
NASA Home Page
Site Manager:   Donald K. Yeomans
Webmaster  Alan B. Chamberlin